Location: Balsareny
(41.8670°N, 1.8830°E)
Time: 12:00:10
(UTC+01:00)

Envisat - Pass Details

Date: 04 December 2021
Orbit: 764 x 766 km, 98.2° (Epoch: 16 January)

Event Time Altitude Azimuth Distance (km) Brightness Sun altitude
Rises 04:53:21 0° 26° (NNE) 3,240 6.6 -34.7°
Reaches altitude 10° 04:56:08 10° 41° (NE) 2,308 5.9 -34.2°
Maximum altitude 05:00:08 23° 93° (E) 1,588 5.2 -33.4°
Drops below altitude 10° 05:04:05 10° 145° (SE) 2,294 5.8 -32.7°
Sets 05:06:50 0° 160° (SSE) 3,214 6.5 -32.2°
